Time,TemperatureF,DewpointF,PressureIn,WindDirection,WindDirectionDegrees,WindSpeedMPH,WindSpeedGustMPH,Humidity,HourlyPrecipIn,Conditions,Clouds,dailyrainin,SoftwareType,DateUTC
2013-09-27 00:43:00,42.0,35.0,-100.00,North,-999,0.0,0.0,77,-99.99,,,0.00,,2013-09-27 06:43:00,
2013-09-27 00:52:00,42.0,35.0,-100.00,North,-999,0.0,0.0,77,-99.99,,,0.00,,2013-09-27 06:52:00,
2013-09-27 01:02:00,42.0,35.0,-100.00,North,-999,0.0,0.0,77,-99.99,,,0.00,,2013-09-27 07:02:00,
2013-09-27 01:43:00,41.0,33.0,-100.00,ENE,65,5.0,8.0,74,-99.99,,,0.00,,2013-09-27 07:43:00,
2013-09-27 01:53:00,41.0,33.0,-100.00,ENE,65,5.0,8.0,74,-99.99,,,0.00,,2013-09-27 07:53:00,
2013-09-27 02:00:00,40.0,33.0,-100.00,NNE,30,5.0,9.0,77,-99.99,,,0.00,,2013-09-27 08:00:00,
2013-09-27 02:11:00,41.0,34.0,-100.00,NNE,20,6.0,9.0,78,-99.99,,,0.00,,2013-09-27 08:11:00,
2013-09-27 02:22:00,41.0,34.0,-100.00,NNE,20,6.0,9.0,78,-99.99,,,0.00,,2013-09-27 08:22:00,
2013-09-27 02:42:00,40.0,33.0,-100.00,NNE,30,5.0,9.0,77,-99.99,,,0.00,,2013-09-27 08:42:00,
2013-09-27 02:52:00,40.0,33.0,-100.00,NNE,30,5.0,9.0,77,-99.99,,,0.00,,2013-09-27 08:52:00,
2013-09-27 03:22:00,40.0,34.0,-100.00,ENE,75,5.0,6.0,79,-99.99,,,0.00,,2013-09-27 09:22:00,
2013-09-27 03:31:00,39.0,34.0,-100.00,ESE,115,3.0,6.0,82,-99.99,,,0.00,,2013-09-27 09:31:00,
2013-09-27 03:44:00,39.0,34.0,-100.00,East,100,4.0,5.0,81,-99.99,,,0.00,,2013-09-27 09:44:00,
2013-09-27 03:53:00,39.0,34.0,-100.00,East,100,4.0,5.0,81,-99.99,,,0.00,,2013-09-27 09:53:00,
2013-09-27 04:13:00,39.0,34.0,-100.00,ESE,115,3.0,6.0,82,-99.99,,,0.00,,2013-09-27 10:13:00,
2013-09-27 04:23:00,39.0,34.0,-100.00,ESE,115,3.0,6.0,82,-99.99,,,0.00,,2013-09-27 10:23:00,
2013-09-27 04:52:00,39.0,34.0,-100.00,SE,135,4.0,6.0,83,-99.99,,,0.00,,2013-09-27 10:52:00,
2013-09-27 05:43:00,39.0,34.0,-100.00,SSW,200,3.0,4.0,84,-99.99,,,0.00,,2013-09-27 11:43:00,
2013-09-27 05:52:00,39.0,34.0,-100.00,SSW,200,3.0,4.0,84,-99.99,,,0.00,,2013-09-27 11:52:00,
2013-09-27 06:00:00,38.0,34.0,-100.00,West,270,3.0,4.0,86,-99.99,,,0.00,,2013-09-27 12:00:00,
2013-09-27 06:12:00,39.0,35.0,-100.00,WSW,245,3.0,4.0,86,-99.99,,,0.00,,2013-09-27 12:12:00,
2013-09-27 06:21:00,39.0,35.0,-100.00,WSW,245,3.0,4.0,86,-99.99,,,0.00,,2013-09-27 12:21:00,
2013-09-27 06:42:00,38.0,34.0,-100.00,West,270,3.0,4.0,86,-99.99,,,0.00,,2013-09-27 12:42:00,
2013-09-27 06:52:00,38.0,34.0,-100.00,West,270,3.0,4.0,86,-99.99,,,0.00,,2013-09-27 12:52:00,
2013-09-27 07:00:00,38.0,35.0,-100.00,WSW,255,3.0,7.0,90,-99.99,,,0.00,,2013-09-27 13:00:00,
2013-09-27 07:21:00,38.0,35.0,-100.00,West,265,4.0,6.0,89,-99.99,,,0.00,,2013-09-27 13:21:00,
2013-09-27 07:42:00,38.0,35.0,-100.00,WSW,255,3.0,7.0,90,-99.99,,,0.00,,2013-09-27 13:42:00,
2013-09-27 07:52:00,38.0,35.0,-100.00,WSW,255,3.0,7.0,90,-99.99,,,0.00,,2013-09-27 13:52:00,
2013-09-27 08:00:00,38.0,35.0,-100.00,West,265,7.0,8.0,89,-99.99,,,0.00,,2013-09-27 14:00:00,
2013-09-27 08:21:00,38.0,35.0,-100.00,West,260,4.0,6.0,90,-99.99,,,0.00,,2013-09-27 14:21:00,
2013-09-27 08:42:00,38.0,35.0,-100.00,West,265,7.0,8.0,89,-99.99,,,0.00,,2013-09-27 14:42:00,
2013-09-27 08:52:00,38.0,35.0,-100.00,West,265,7.0,8.0,89,-99.99,,,0.00,,2013-09-27 14:52:00,
2013-09-27 09:00:00,39.0,35.0,-100.00,West,260,7.0,10.0,86,-99.99,,,0.00,,2013-09-27 15:00:00,
2013-09-27 09:21:00,39.0,35.0,-100.00,WSW,250,6.0,9.0,88,-99.99,,,0.00,,2013-09-27 15:21:00,
2013-09-27 09:44:00,39.0,35.0,-100.00,West,260,7.0,10.0,86,-99.99,,,0.00,,2013-09-27 15:44:00,
2013-09-27 09:54:00,39.0,35.0,-100.00,West,260,7.0,10.0,86,-99.99,,,0.00,,2013-09-27 15:54:00,
2013-09-27 10:24:00,40.0,36.0,-100.00,WSW,255,6.0,9.0,86,-99.99,,,0.00,,2013-09-27 16:24:00,
2013-09-27 10:44:00,40.0,36.0,-100.00,SW,215,6.0,9.0,85,-99.99,,,0.00,,2013-09-27 16:44:00,
2013-09-27 10:53:00,40.0,36.0,-100.00,SW,215,6.0,9.0,85,-99.99,,,0.00,,2013-09-27 16:53:00,
2013-09-27 11:00:00,42.0,35.0,-100.00,SW,225,7.0,9.0,75,-99.99,,,0.00,,2013-09-27 17:00:00,
2013-09-27 11:13:00,41.0,35.0,-100.00,SW,225,6.0,9.0,80,-99.99,,,0.00,,2013-09-27 17:13:00,
2013-09-27 11:43:00,42.0,35.0,-100.00,SW,225,7.0,9.0,75,-99.99,,,0.00,,2013-09-27 17:43:00,
2013-09-27 11:52:00,42.0,35.0,-100.00,SW,225,7.0,9.0,75,-99.99,,,0.00,,2013-09-27 17:52:00,
2013-09-27 12:21:00,43.0,34.0,-100.00,SW,220,7.0,10.0,70,-99.99,,,0.00,,2013-09-27 18:21:00,
2013-09-27 12:43:00,43.0,33.0,-100.00,SW,225,8.0,11.0,66,-99.99,,,0.00,,2013-09-27 18:43:00,
2013-09-27 12:52:00,43.0,33.0,-100.00,SW,225,8.0,11.0,66,-99.99,,,0.00,,2013-09-27 18:52:00,
2013-09-27 13:12:00,44.0,32.0,-100.00,SW,230,6.0,11.0,61,-99.99,,,0.00,,2013-09-27 19:12:00,
2013-09-27 13:22:00,44.0,32.0,-100.00,SW,230,6.0,11.0,61,-99.99,,,0.00,,2013-09-27 19:22:00,
2013-09-27 13:42:00,45.0,31.0,-100.00,SSW,210,9.0,12.0,59,-99.99,,,0.00,,2013-09-27 19:42:00,
2013-09-27 13:53:00,45.0,31.0,-100.00,SSW,210,9.0,12.0,59,-99.99,,,0.00,,2013-09-27 19:53:00,
2013-09-27 14:00:00,43.0,33.0,-100.00,SSE,155,16.0,22.0,66,-99.99,,,0.00,,2013-09-27 20:00:00,
2013-09-27 14:12:00,45.0,31.0,-100.00,South,170,9.0,14.0,58,-99.99,,,0.00,,2013-09-27 20:12:00,
2013-09-27 14:43:00,43.0,33.0,-100.00,SSE,155,16.0,22.0,66,-99.99,,,0.00,,2013-09-27 20:43:00,
2013-09-27 14:52:00,43.0,33.0,-100.00,SSE,155,16.0,22.0,66,-99.99,,,0.00,,2013-09-27 20:52:00,
2013-09-27 15:00:00,42.0,32.0,-100.00,South,175,15.0,20.0,68,-99.99,,,0.00,,2013-09-27 21:00:00,
2013-09-27 15:21:00,42.0,32.0,-100.00,South,170,14.0,20.0,68,-99.99,,,0.00,,2013-09-27 21:21:00,
2013-09-27 15:54:00,42.0,32.0,-100.00,South,175,15.0,20.0,68,-99.99,,,0.00,,2013-09-27 21:54:00,
2013-09-27 16:24:00,43.0,31.0,-100.00,South,170,14.0,19.0,64,-99.99,,,0.00,,2013-09-27 22:24:00,
2013-09-27 16:43:00,44.0,31.0,-100.00,South,180,12.0,17.0,61,-99.99,,,0.00,,2013-09-27 22:43:00,
2013-09-27 16:53:00,44.0,31.0,-100.00,South,180,12.0,17.0,61,-99.99,,,0.00,,2013-09-27 22:53:00,
2013-09-27 17:00:00,48.0,32.0,-100.00,South,175,8.0,12.0,53,-99.99,,,0.00,,2013-09-27 23:00:00,
2013-09-27 17:12:00,45.0,32.0,-100.00,SSE,165,9.0,14.0,60,-99.99,,,0.00,,2013-09-27 23:12:00,
2013-09-27 17:43:00,48.0,32.0,-100.00,South,175,8.0,12.0,53,-99.99,,,0.00,,2013-09-27 23:43:00,
2013-09-27 17:53:00,48.0,32.0,-100.00,South,175,8.0,12.0,53,-99.99,,,0.00,,2013-09-27 23:53:00,
2013-09-27 18:22:00,50.0,29.0,-100.00,South,190,9.0,14.0,45,-99.99,,,0.00,,2013-09-28 00:22:00,
2013-09-27 18:42:00,49.0,30.0,-100.00,SSE,165,8.0,12.0,48,-99.99,,,0.00,,2013-09-28 00:42:00,
2013-09-27 18:52:00,49.0,30.0,-100.00,SSE,165,8.0,12.0,48,-99.99,,,0.00,,2013-09-28 00:52:00,
2013-09-27 19:12:00,48.0,30.0,-100.00,SSE,165,8.0,11.0,51,-99.99,,,0.00,,2013-09-28 01:12:00,
2013-09-27 19:21:00,48.0,30.0,-100.00,SSE,165,8.0,11.0,51,-99.99,,,0.00,,2013-09-28 01:21:00,
2013-09-27 19:42:00,46.0,30.0,-100.00,SSE,150,6.0,11.0,55,-99.99,,,0.00,,2013-09-28 01:42:00,
2013-09-27 19:52:00,46.0,30.0,-100.00,SSE,150,6.0,11.0,55,-99.99,,,0.00,,2013-09-28 01:52:00,
2013-09-27 20:00:00,44.0,31.0,-100.00,WSW,250,8.0,12.0,58,-99.99,,,0.00,,2013-09-28 02:00:00,
2013-09-27 20:12:00,44.0,30.0,-100.00,SSW,195,4.0,6.0,57,-99.99,,,0.00,,2013-09-28 02:12:00,
2013-09-27 20:22:00,44.0,30.0,-100.00,SSW,195,4.0,6.0,57,-99.99,,,0.00,,2013-09-28 02:22:00,
2013-09-27 20:42:00,44.0,31.0,-100.00,WSW,250,8.0,12.0,58,-99.99,,,0.00,,2013-09-28 02:42:00,
2013-09-27 20:53:00,44.0,31.0,-100.00,WSW,250,8.0,12.0,58,-99.99,,,0.00,,2013-09-28 02:53:00,
2013-09-27 21:22:00,43.0,30.0,-100.00,West,270,9.0,12.0,59,-99.99,,,-99.99,,2013-09-28 03:22:00,
2013-09-27 21:45:00,43.0,29.0,-100.00,West,265,8.0,11.0,58,-99.99,,,0.00,,2013-09-28 03:45:00,
2013-09-27 21:55:00,43.0,29.0,-100.00,West,265,8.0,11.0,58,-99.99,,,0.00,,2013-09-28 03:55:00,
2013-09-27 22:13:00,43.0,29.0,-100.00,West,270,9.0,12.0,56,-99.99,,,0.00,,2013-09-28 04:13:00,
2013-09-27 22:54:00,42.0,29.0,-100.00,West,270,9.0,13.0,58,-99.99,,,0.00,,2013-09-28 04:54:00,
2013-09-27 23:00:00,40.0,29.0,-100.00,West,270,8.0,9.0,66,-99.99,,,0.00,,2013-09-28 05:00:00,
2013-09-27 23:13:00,42.0,29.0,-100.00,West,260,9.0,13.0,59,-99.99,,,-99.99,,2013-09-28 05:13:00,
2013-09-27 23:43:00,40.0,29.0,-100.00,West,270,8.0,9.0,66,-99.99,,,0.00,,2013-09-28 05:43:00,
2013-09-27 23:52:00,40.0,29.0,-100.00,West,270,8.0,9.0,66,-99.99,,,0.00,,2013-09-28 05:52:00,